Content
SEND FEEDBACK

Daily
Averages
Monthly
Summary
United States of America

BOSTON, MASSACHUSETTS


Home > North America > United States > Massachusetts
Elevation: 1 meter     Latitude: 42 22N     Longitude: 071 02W

WEATHER
 
SELECT A DAY
Number of Records: 205,387;   Date Range: 1/1/95 - 10/22/14
 
SHARE

PRINT THIS DATA

[ ← Previous Day ]
WEATHER ALMANAC - 5 APRIL, 2013
[ Next Day → ]
[ °F ]   °C
Weather ElementAverageHighLow
Temperature8.2 °C13.9 °C (5:54 pm)3.3 °C (3:54 am)
Dewpoint-3.5 °C0.6 °C (4:54 pm)-7.8 °C (7:54 pm)
Humidity46.1 %68 % (3:54 am)24 % (7:54 pm)
Barometer1010.2 hPa1016.6 hPa (1:54 am)1003.7 hPa (4:54 pm)
Wind Speed20.4 km/h31.5 km/h (8:54 pm)
Wind Gust50.1 km/h (8:54 pm)
Weather ElementAverage
Visibility16.1 km
Wind DirectionWSW (243.5 °)

Weather ElementTotal
Precipitation---
Heating Degree Days9.8 (Base 18.3)
Averaged from 23 records on 5 April, 2013
WEATHER CONDITIONS BREAKOUT
WIND DIRECTION BREAKOUT
WEATHER BY HOUR - 5 APRIL, 2013
[ °F ]   °C
Local TimeTemperatureDewpointHumidityBarometerVisibilityWind DirectionWind SpeedGust SpeedPrecipitationEventsConditions
1:54 AM3.9 °C-2.2 °C65 %1016.6 hPa16.1 kmSW (220°)25.9 km/hClear
2:54 AM3.9 °C-2.2 °C65 %1015.9 hPa16.1 kmSW (220°)25.9 km/hClear
3:54 AM3.3 °C-2.2 °C68 %1015.2 hPa16.1 kmSSW (210°)20.4 km/hClear
4:54 AM3.9 °C-2.2 °C65 %1014.9 hPa16.1 kmSW (220°)20.4 km/hMostly Cloudy
5:54 AM3.9 °C-2.8 °C62 %1014.2 hPa16.1 kmSW (220°)22.2 km/hMostly Cloudy
6:54 AM4.4 °C-3.9 °C55 %1013.9 hPa16.1 kmSW (230°)20.4 km/hOvercast
7:54 AM5 °C-2.8 °C57 %1013.9 hPa16.1 kmSW (230°)16.7 km/h33.3 km/hOvercast
8:54 AM5.6 °C-2.2 °C58 %1012.9 hPa16.1 kmSW (230°)20.4 km/hOvercast
9:54 AM7.2 °C-2.2 °C52 %1012.2 hPa16.1 kmWSW (240°)16.7 km/h31.5 km/hOvercast
10:54 AM9.4 °C-3.9 °C39 %1011.2 hPa16.1 kmWSW (250°)16.7 km/hOvercast
11:54 AM9.4 °C-5 °C36 %1010.2 hPa16.1 kmSW (220°)16.7 km/hOvercast
12:54 PM11.1 °C-3.3 °C37 %1008.5 hPa16.1 kmWest (270°)13 km/hMostly Cloudy
1:54 PM11.7 °C-3.3 °C35 %1006.8 hPa16.1 kmWSW (250°)13 km/hMostly Cloudy
2:54 PM12.8 °C-5 °C29 %1005.1 hPa16.1 kmVariable5.6 km/hScattered Clouds
3:54 PM11.7 °C0 °C45 %1004.1 hPa16.1 kmESE (120°)18.5 km/hScattered Clouds
4:54 PM11.7 °C0.6 °C47 %1003.7 hPa16.1 kmSE (130°)16.7 km/hMostly Cloudy
5:54 PM13.9 °C-4.4 °C28 %1004.1 hPa16.1 kmNorth (350°)18.5 km/h27.8 km/hMostly Cloudy
6:54 PM13.3 °C-5.6 °C27 %1005.8 hPa16.1 kmNNW (330°)24.1 km/h37 km/hMostly Cloudy
7:54 PM12.2 °C-7.8 °C24 %1006.4 hPa16.1 kmNW (320°)18.5 km/hScattered Clouds
8:54 PM10 °C-5 °C35 %1008.5 hPa16.1 kmNorth (350°)31.5 km/h50.1 km/hMostly Cloudy
9:54 PM8.3 °C-5.6 °C37 %1010.2 hPa16.1 kmNNW (330°)29.6 km/h50.1 km/hScattered Clouds
10:54 PM6.1 °C-5 °C45 %1011.2 hPa16.1 kmNNW (340°)29.6 km/h42.6 km/hScattered Clouds
11:54 PM5 °C-5 °C49 %1012.2 hPa16.1 kmNW (320°)29.6 km/h38.9 km/hScattered Clouds
Hourly data recorded from KBOS, located 0 kilometers away from Boston, Massachusetts







STORIES FROM OUR PARTNERS